Regional Weather Roundup
Issued by NWS

Home | Current Version | Previous Version | Text Only | Print | Product List | Glossary On
Versions: 1 2 3 4 5 6 7 8 9 10 11 12 13 14 15 16 17 18 19 20 21 22 23 24 25 26 27 28 29 30 31 32 33 34 35 36 37 38 39 40 41 42 43 44 45 46 47 48 49 50
000
ASUS45 KABQ 011010
RWRNM
NEW MEXICO REGIONAL WEATHER ROUNDUP
NATIONAL WEATHER SERVICE ALBUQUERQUE NM
400 AM MDT SAT AUG 01 2015

NOTE: "FAIR" MEANS FEW OR NO CLOUDS BELOW 12,000 FEET AGL WITH NO
       SIGNIFICANT WEATHER OR OBSTRUCTIONS TO VISION.

      THIS PRODUCT IS RELEASED AS TWO VERSIONS.  ONE VERSION NEAR
      THE TOP OF THE HOUR CONTAINING PRELIMINARY DATA FROM ALBUQUERQUE
      AND OTHER STATIONS.  A FINAL VERSION WITH ADDITIONAL DATA IS
      ISSUED ABOUT 10 MINUTES AFTER THE HOUR.

NMZ501-503-504-510>518-011100-
NORTHWEST PLATEAU/NORTHCENTRAL MOUNTAINS

CITY           SKY/WX    TMP DP  RH WIND       PRES   REMARKS
FARMINGTON     RAIN      64  61  90 E6        30.27S
LOS ALAMOS     CLOUDY    61  56  85 SW5       30.41S
SANTA FE       CLOUDY    63  58  83 SE5       30.35F
TAOS           CLOUDY    57  48  72 CALM      30.41S
ANGEL FIRE     CLOUDY    53  51  94 E3        30.49S

$$
NMZ402-403-502-505>509-011100-
WESTCENTRAL MOUNTAINS/SOUTHWEST MOUNTAINS

CITY           SKY/WX    TMP DP  RH WIND       PRES   REMARKS
GALLUP         CLOUDY    61  58  90 CALM      30.32F
GRANTS         MOCLDY    60  58  92 CALM      30.36S
SILVER CITY      N/A     64  57  77 NW7       30.26S

$$
NMZ407-409-411-412-011100-
SOUTHERN DESERTS

CITY           SKY/WX    TMP DP  RH WIND       PRES   REMARKS
LORDSBURG      FAIR      70  61  73 NW6       30.15S
DEMING         PTCLDY    73  59  61 NE10      30.16S
LAS CRUCES     PTCLDY    69  60  72 N12       30.17F
HOLLOMAN AFB   PTCLDY    73  58  59 N12       30.14F
ALAMOGORDO     PTCLDY    72  55  56 N9        30.16S
T OR C         CLOUDY    67  61  81 N9        30.23F

$$
NMZ519>523-011100-
CENTRAL VALLEYS/CENTRAL HIGHLANDS

CITY           SKY/WX    TMP DP  RH WIND       PRES   REMARKS
ALBUQUERQUE    CLOUDY    68  58  70 E3        30.30F
DOUBLE EAGLE   MOCLDY    64  60  87 SE5       30.33S
MORIARTY ARPT    N/A     61  57  87 W5        30.37S
CLINES CORNERS LGT RAIN  59  54  83 W10       30.37F
BELEN          CLOUDY    66  61  82 CALM      30.29S
SOCORRO        RAIN      64  61  90 SW7       30.26F

$$
NMZ524>526-539-540-011100-
SOUTHCENTRAL MOUNTAINS

CITY           SKY/WX    TMP DP  RH WIND       PRES   REMARKS
RUIDOSO          N/A    N/A N/A N/A MISG        N/A

$$
NMZ527>531-011100-
NORTHEAST HIGHLANDS/NORTHEAST PLAINS

CITY           SKY/WX    TMP DP  RH WIND       PRES   REMARKS
LAS VEGAS      CLOUDY    59  58  96 S6        30.37S
RATON          CLOUDY    61  59  93 NW3       30.31F
CLAYTON        MOCLDY    65  63  93 S10       30.24F

$$
NMZ532>537-011100-
EASTCENTRAL PLAINS

CITY           SKY/WX    TMP DP  RH WIND       PRES   REMARKS
TUCUMCARI      CLOUDY    70  66  87 W8        30.21F
CANNON AFB     CLOUDY    68  66  93 NE5       30.22F
CLOVIS AIRPORT CLOUDY    68  66  94 E7        30.23F

$$
NMZ028-029-538-011100-
SOUTHEAST PLAINS

CITY           SKY/WX    TMP DP  RH WIND       PRES   REMARKS
ROSWELL        MOCLDY    75  64  68 N5        30.16F
ARTESIA        CLEAR     75  64  69 N6        30.15R
CARLSBAD       CLEAR     75  56  51 S3        30.11S
HOBBS          CLEAR     70  66  88 N8        30.16R


$$



USA.gov is the U.S. government's official web portal to all federal, state and local government web resources and services.